KC0VVH Weather Reports


Display with metric or nautical units.
time (UTC)temp
F
wind
direction
speed
MPH
gust
MPH
rain 1hr
in
rain 24hr
in
rain mn
in
humidity
%
barometer
mb
20260905172737 82 315 2.0 10.0 0.00 0.00 0.00 29 1017.6
20260905171816 82 17 2.0 9.0 0.00 0.00 0.00 30 1017.6
20260905170916 83 54 1.0 7.0 0.00 0.00 0.00 30 1017.6
20260905170016 83 56 0.0 4.0 0.00 0.00 0.00 30 1017.6
20260905165416 83 56 0.0 3.0 0.00 0.00 0.00 30 1017.6
20260905164516 82 56 1.0 5.0 0.00 0.00 0.00 32 1017.6
20260905163616 80 57 1.0 6.0 0.00 0.00 0.00 35 1017.6
20260905162737 80 57 1.0 6.0 0.00 0.00 0.00 34 1017.6
20260905161837 78 0 0.0 0.0 0.00 0.00 0.00 33 1017.6
20260905160916 78 58 0.0 3.0 0.00 0.00 0.00 33 1017.6
20260905160016 77 0 0.0 0.0 0.00 0.00 0.00 34 1017.6
20260905155416 77 0 0.0 0.0 0.00 0.00 0.00 34 1017.6
20260905154516 74 0 0.0 0.0 0.00 0.00 0.00 39 1017.6
20260905153616 73 68 0.0 5.0 0.00 0.00 0.00 42 1017.6
20260905152716 71 68 1.0 5.0 0.00 0.00 0.00 44 1017.6
20260905151816 71 68 0.0 3.0 0.00 0.00 0.00 41 1017.6
20260905150916 71 48 0.0 2.0 0.00 0.00 0.00 40 1017.6
20260905150016 70 40 1.0 5.0 0.00 0.00 0.00 41 1017.6
20260905145416 70 253 0.0 2.0 0.00 0.00 0.00 41 1017.6
20260905144516 70 249 0.0 3.0 0.00 0.00 0.00 40 1017.6
20260905143616 69 0 0.0 0.0 0.00 0.00 0.00 40 1017.6
20260905142716 68 0 0.0 0.0 0.00 0.00 0.00 43 1017.6
20260905141837 67 271 0.0 4.0 0.00 0.00 0.00 44 1017.6
20260905140916 66 271 1.0 4.0 0.00 0.00 0.00 44 1017.6
20260905140037 66 0 0.0 1.0 0.00 0.00 0.00 44 1017.6
20260905135416 66 0 0.0 0.0 0.00 0.00 0.00 45 1017.6
20260905134516 66 271 0.0 3.0 0.00 0.00 0.00 44 1017.6
20260905133616 65 271 0.0 3.0 0.00 0.00 0.00 44 1017.6
20260905132716 65 0 0.0 0.0 0.00 0.00 0.00 45 1017.6
20260905131837 65 0 0.0 0.0 0.00 0.00 0.00 46 1017.6
20260905130916 65 236 0.0 3.0 0.00 0.00 0.00 45 1017.6
20260905130016 64 99 0.0 3.0 0.00 0.00 0.00 47 1017.6
20260905125416 63 84 0.0 1.0 0.00 0.00 0.00 48 1017.6
20260905124516 63 0 0.0 0.0 0.00 0.00 0.00 48 1017.6
20260905123616 62 0 0.0 0.0 0.00 0.00 0.00 50 1017.6
20260905122737 63 84 0.0 1.0 0.00 0.00 0.00 49 1017.6
20260905121816 63 84 0.0 2.0 0.00 0.00 0.00 48 1017.6
20260905120917 64 84 0.0 1.0 0.00 0.00 0.00 46 1017.6
20260905005411 86 205 4.0 11.0 0.00 0.00 0.00 20 1016.5
20260905004511 87 205 3.0 12.0 0.00 0.00 0.00 19 1016.5
20260905003611 87 220 2.0 9.0 0.00 0.00 0.00 19 1016.5
20260905002711 88 206 2.0 8.0 0.00 0.00 0.00 19 1016.5
20260905001811 88 213 3.0 12.0 0.00 0.00 0.00 19 1016.5
20260905000911 90 273 0.0 2.0 0.00 0.00 0.00 19 1016.5
20260905000011 90 239 0.0 5.0 0.00 0.00 0.00 18 1016.5
20260904235411 90 248 1.0 9.0 0.00 0.00 0.00 18 1016.5
20260904234511 90 203 2.0 12.0 0.00 0.00 0.00 19 1016.5
20260904233611 90 211 1.0 12.0 0.00 0.00 0.00 18 1016.5
20260904232711 90 157 2.0 15.0 0.00 0.00 0.00 19 1016.5
20260904231811 89 179 3.0 11.0 0.00 0.00 0.00 20 1016.5
20260904230911 89 193 4.0 11.0 0.00 0.00 0.00 20 1016.5
20260904230011 90 185 3.0 10.0 0.00 0.00 0.00 20 1016.5
20260904225411 90 178 2.0 10.0 0.00 0.00 0.00 20 1016.5
20260904224511 90 175 4.0 12.0 0.00 0.00 0.00 20 1016.5
20260904223611 89 151 3.0 12.0 0.00 0.00 0.00 20 1016.5
20260904222711 89 107 2.0 9.0 0.00 0.00 0.00 22 1016.5
20260904221811 89 181 3.0 10.0 0.00 0.00 0.00 20 1016.5
20260904220911 89 184 0.0 5.0 0.00 0.00 0.00 24 1016.5
20260904220011 89 58 1.0 6.0 0.00 0.00 0.00 26 1016.5
20260904215411 89 60 2.0 6.0 0.00 0.00 0.00 27 1016.5
20260904214511 86 61 1.0 6.0 0.00 0.00 0.00 27 1016.5
20260904213632 86 0 0.0 0.0 0.00 0.00 0.00 28 1016.5
20260904212711 86 0 0.0 1.0 0.00 0.00 0.00 28 1016.5
20260904211811 86 0 0.0 0.0 0.00 0.00 0.00 28 1016.5
20260904210911 85 61 0.0 4.0 0.00 0.00 0.00 30 1016.5
20260904210011 85 61 1.0 5.0 0.00 0.00 0.00 29 1016.5
20260904205411 86 61 0.0 4.0 0.00 0.00 0.00 29 1016.5
20260904204532 86 56 1.0 8.0 0.00 0.00 0.00 29 1016.5
20260904203632 86 27 1.0 4.0 0.00 0.00 0.00 29 1016.5
20260904202711 86 24 1.0 8.0 0.00 0.00 0.00 28 1016.5
20260904201811 87 27 1.0 6.0 0.00 0.00 0.00 27 1016.5
20260904200932 86 26 1.0 6.0 0.00 0.00 0.00 29 1016.5
20260904200032 85 26 1.0 6.0 0.00 0.00 0.00 30 1016.5
20260904195411 85 28 2.0 8.0 0.00 0.00 0.00 28 1016.5
20260904194532 85 46 2.0 8.0 0.00 0.00 0.00 29 1016.5
20260904193632 85 24 1.0 5.0 0.00 0.00 0.00 29 1016.5
20260904192711 84 319 3.0 10.0 0.00 0.00 0.00 28 1016.5
20260904191811 84 307 2.0 10.0 0.00 0.00 0.00 29 1016.5
20260904190932 84 322 1.0 6.0 0.00 0.00 0.00 29 1016.5
20260904190011 85 15 1.0 10.0 0.00 0.00 0.00 28 1016.5
20260904185411 85 10 3.0 10.0 0.00 0.00 0.00 29 1016.5
20260904184511 85 343 1.0 5.0 0.00 0.00 0.00 29 1016.5
20260904183611 86 3 1.0 5.0 0.00 0.00 0.00 27 1016.5
20260904182711 86 360 1.0 5.0 0.00 0.00 0.00 26 1016.5
20260904181811 86 351 2.0 7.0 0.00 0.00 0.00 27 1016.5
20260904180932 87 2 2.0 6.0 0.00 0.00 0.00 26 1016.5
20260904180011 86 267 2.0 10.0 0.00 0.00 0.00 27 1016.5
20260904175411 85 183 1.0 7.0 0.00 0.00 0.00 28 1016.5
20260904174532 83 180 0.0 4.0 0.00 0.00 0.00 29 1016.5
20260904173611 82 181 1.0 5.0 0.00 0.00 0.00 28 1016.5